Fort Polk, LA

11:09 AM CDT on October 17, 2019 (GMT -0500)
Fort Polk

Weather History for KAQV - August, 2019

Change the Weather History Date:

Wednesday, August 7, 2019

  Actual Average (WUND) Record (WUND)
Temperature  
Mean Temperature 86 °F -  
Max Temperature 97 °F - - (-1)
Min Temperature 77 °F - - (-1)
Cooling Degree Days 22    
Growing Degree Days 36 (Base 50)    
Moisture  
Dew Point 75 °F    
Average Humidity 73    
Maximum Humidity 94    
Minimum Humidity 47    
Precipitation  
Precipitation 0.00 in - - ()
Sea Level Pressure  
Sea Level Pressure 29.92 in    
Wind  
Wind Speed 3 mph (SSW)    
Max Wind Speed 6 mph    
Max Gust Speed -    
Visibility 10 miles    
Events      
Averages and records for this station are not official NWS values.
T = Trace of Precipitation, MM = Missing Value Source: NWS Daily Summary

Daily Weather History Graph

Daily Weather History Graph

Search for Another Location

Airport or City:

Astronomy

Aug. 07, 2019 Rise Set
Actual Time 6:33 AM CDT 8:04 PM CDT
Civil Twilight 6:07 AM CDT 8:30 PM CDT
Nautical Twilight 5:36 AM CDT 9:01 PM CDT
Astronomical Twilight 5:03 AM CDT 9:33 PM CDT
Moon 1:37 PM CDT (8/7) 12:16 AM CDT (8/7)
Length of Visible Light 14h 22m
Length of Day
13h 30m
Waxing Crescent, 50% of the Moon is Illuminated
Aug 7
Waxing Crescent
Aug 7
First Quarter
Aug 15
Full
Aug 23
Last Quarter
Aug 30
New

Hourly Weather History & Observations

Time (CDT) Temp. Heat Index Dew Point Humidity Pressure Visibility Wind Dir Wind Speed Gust Speed Precip Events Conditions
1:56 AM 79.0 °F - 75.9 °F 90% 29.92 in 10.0 mi Calm Calm - N/A   Clear
2:56 AM 78.1 °F - 75.0 °F 90% 29.91 in 10.0 mi Calm Calm - N/A   Clear
3:56 AM 78.1 °F - 75.0 °F 90% 29.91 in 9.0 mi South 3.5 mph - N/A   Clear
4:15 AM 77.0 °F - 75.0 °F 94% 29.93 in 8.0 mi South 3.5 mph - N/A   Partly Cloudy
4:56 AM 77.0 °F - 75.0 °F 94% 29.92 in 8.0 mi Calm Calm - N/A   Partly Cloudy
5:56 AM 78.1 °F - 75.0 °F 90% 29.94 in 9.0 mi Variable 3.5 mph - N/A   Clear
6:56 AM 78.1 °F - 75.0 °F 90% 29.95 in 9.0 mi Calm Calm - N/A   Clear
7:56 AM 80.1 °F 85.4 °F 75.9 °F 87% 29.95 in 9.0 mi WSW 5.8 mph - N/A   Clear
8:56 AM 84.0 °F 93.7 °F 77.0 °F 79% 29.95 in 10.0 mi Variable 5.8 mph - N/A   Partly Cloudy
9:56 AM 87.1 °F 96.3 °F 75.0 °F 67% 29.96 in 10.0 mi SW 5.8 mph - N/A   Partly Cloudy
10:56 AM 88.0 °F 96.5 °F 73.9 °F 63% 29.96 in 10.0 mi Variable 5.8 mph - N/A   Scattered Clouds
11:56 AM 89.1 °F 97.0 °F 73.0 °F 59% 29.96 in 10.0 mi Variable 5.8 mph - N/A   Mostly Cloudy
12:56 PM 91.9 °F 100.7 °F 73.0 °F 54% 29.94 in 10.0 mi West 4.6 mph - N/A   Scattered Clouds
1:56 PM 91.0 °F 98.2 °F 72.0 °F 53% 29.93 in 10.0 mi Calm Calm - N/A   Scattered Clouds
2:56 PM 93.9 °F 102.1 °F 72.0 °F 49% 29.91 in 10.0 mi Variable 4.6 mph - N/A   Scattered Clouds
3:56 PM 96.1 °F 105.6 °F 73.0 °F 47% 29.89 in 10.0 mi Variable 4.6 mph - N/A   Scattered Clouds
4:56 PM 95.0 °F 104.5 °F 73.0 °F 49% 29.88 in 10.0 mi Variable 5.8 mph - N/A   Scattered Clouds
5:56 PM 93.9 °F 103.4 °F 73.0 °F 51% 29.87 in 10.0 mi Variable 3.5 mph - N/A   Scattered Clouds
6:56 PM 91.0 °F 99.3 °F 73.0 °F 55% 29.86 in 10.0 mi Variable 3.5 mph - N/A   Clear
7:56 PM 86.0 °F 96.0 °F 75.9 °F 72% 29.88 in 10.0 mi Calm Calm - N/A   Clear
8:56 PM 82.9 °F 90.8 °F 75.9 °F 79% 29.88 in 10.0 mi SSE 3.5 mph - N/A   Clear
9:56 PM 82.0 °F 90.2 °F 77.0 °F 85% 29.90 in 10.0 mi South 4.6 mph - N/A   Clear
10:56 PM 81.0 °F 87.9 °F 77.0 °F 88% 29.91 in 10.0 mi South 4.6 mph - N/A   Clear
11:56 PM 80.1 °F 85.4 °F 75.9 °F 87% 29.91 in 10.0 mi Variable 3.5 mph - N/A   Clear